Location: Limerick
(52.6650°N, 8.6230°W)
Time: 20:39:38
(UTC+01:00)

ISS - Pass Details

Date: 21 May 2017
Orbit: 402 x 409 km, 51.6° (Epoch: 25 May)

Event Time Altitude Azimuth Distance (km) Brightness Sun altitude
Exits shadow 03:30:08 - 270° (W) 1,818 -0.8 -12.7°
Reaches altitude 10° 03:30:59 10° 269° (W) 1,468 -1.3 -12.6°
Maximum altitude 03:34:16 74° 185° (S) 427 -3.9 -12.4°
Drops below altitude 10° 03:37:32 10° 100° (E) 1,463 -0.7 -12.1°
Sets 03:39:37 0° 98° (E) 2,321 0.3 -12.0°
